Tracking 19575 objects as of 18-Feb-2019
HD Live streaming from Space Station
objects crossing your sky now

SEA LAUNCH DEMO

Track SEA LAUNCH DEMO now!
SEA LAUNCH DEMO is classified as:


NORAD ID: 25661
Int'l Code: 1999-014A
Perigee: 667.0 km
Apogee: 36,049.2 km
Inclination: 1.0 °
Period: 645.0 minutes
Semi major axis: 24729 km
RCS: 5.9526 m2 (large)
Launch date: March 28, 1999
Source: Sea Launch (SEAL)
Launch site: SEA LAUNCH (SEAL)
aabbcc
Your satellite tracking list
Your tracking list is empty




NASA's NSSDC Master Catalog

Two Line Element Set (TLE):
1 25661U 99014A   19048.52262658 -.00000160 +00000-0 -10048-2 0  9995
2 25661 001.0343 267.1511 7153965 119.6278 328.5453 02.23249598162290
Source of the keplerian elements: AFSPC